Location: Newark
(48.1500°N, 2.9667°W)
Time: 03:28:37
(UTC+00:00)

Altair - Pass Details

Date: 02 February 2020
Orbit: 1502 x 1682 km, 47.2° (Epoch: 17 February)

Event Time Altitude Azimuth Distance (km) Brightness Sun altitude
Rises 08:31:21 0° 255° (WSW) 4,860 9.7 6.7°
Reaches altitude 10° 08:34:27 10° 255° (WSW) 3,894 9.3 7.1°
Maximum altitude 08:44:30 83° 170° (S) 1,693 8.0 8.5°
Drops below altitude 10° 08:54:43 10° 84° (E) 3,945 10.4 9.8°
Sets 08:57:52 0° 84° (E) 4,927 10.9 10.2°
